Weather History for Springfield, MO

Change the Weather History Date:

Tuesday, March 19, 2013

  Actual Average Record
Temperature  
Mean Temperature 37 °F 47 °F  
Max Temperature 49 °F 59 °F 86 °F (1907)
Min Temperature 25 °F 36 °F 2 °F (1923)
Degree Days  
Heating Degree Days 28 18  
Month to date heating degree days 427 390  
Since 1 July heating degree days 3725 3983  
Cooling Degree Days 0 0  
Month to date cooling degree days 0 0  
Year to date cooling degree days 0 0  
Moisture  
Dew Point 22 °F    
Average Humidity 60    
Maximum Humidity 92    
Minimum Humidity 28    
Precipitation  
Precipitation 0.00 in 0.12 in 1.93 in (1998)
Month to date precipitation 3.14 2.12  
Year to date precipitation 8.48 7.11  
Snow  
Snow 0.00 in - - ()
Month to date snowfall T  
Since 1 July snowfall 7.0  
Snow Depth 0.00 in    
Sea Level Pressure  
Sea Level Pressure 30.18 in    
Wind  
Wind Speed 5 mph (NE)    
Max Wind Speed 18 mph    
Max Gust Speed 25 mph    
Visibility 10 miles    
Events      
T = Trace of Precipitation, MM = Missing Value Source: NWS Daily Summary

Daily Weather History Graph

Daily Weather History Graph

Search for Another Location

Airport:

Trip Planner

Search our weather history database for the weather conditions in past years. The results will help you decide how hot, cold, wet, or windy it might be!

Date:

Astronomy

Mar. 19, 2013 Rise Set
Actual Time 7:18 AM CDT 7:24 PM CDT
Civil Twilight 6:52 AM CDT 7:50 PM CDT
Nautical Twilight 6:21 AM CDT 8:21 PM CDT
Astronomical Twilight 5:51 AM CDT 8:51 PM CDT
Moon 12:16 PM CDT (3/19) 2:04 AM CDT (3/19)
Length of Visible Light 12h 58m
Length of Day
12h 06m
Waxing Crescent, 50% of the Moon is Illuminated
Mar 19
Waxing Crescent
Mar 19
First Quarter
Mar 27
Full
Apr 2
Last Quarter
Apr 10
New

Hourly Weather History & Observations

Time (CDT) Temp. Windchill Dew Point Humidity Pressure Visibility Wind Dir Wind Speed Gust Speed Precip Events Conditions
12:52 AM 36.0 °F - 25.0 °F 64% 30.06 in 10.0 mi Calm Calm - N/A   Clear
1:52 AM 34.0 °F - 25.0 °F 70% 30.07 in 10.0 mi North - - N/A   Clear
2:52 AM 34.0 °F - 25.0 °F 70% 30.10 in 10.0 mi North - - N/A   Clear
3:52 AM 33.1 °F - 24.1 °F 70% 30.09 in 10.0 mi North - - N/A   Clear
4:52 AM 30.0 °F 23.2 °F 23.0 °F 75% 30.11 in 10.0 mi SW 6.9 mph - N/A   Clear
5:52 AM 26.1 °F - 21.0 °F 81% 30.11 in 10.0 mi North - - N/A   Clear
6:52 AM 27.0 °F - 21.0 °F 78% 30.15 in 10.0 mi Calm Calm - N/A   Clear
7:52 AM 28.0 °F - 21.9 °F 78% 30.18 in 10.0 mi Calm Calm - N/A   Clear
8:52 AM 36.0 °F - 21.9 °F 57% 30.19 in 10.0 mi Calm Calm - N/A   Clear
9:52 AM 37.9 °F 32.7 °F 18.0 °F 45% 30.21 in 10.0 mi ENE 6.9 mph - N/A   Mostly Cloudy
10:52 AM 41.0 °F 38.0 °F 16.0 °F 36% 30.22 in 10.0 mi NE 4.6 mph - N/A   Overcast
11:52 AM 43.0 °F 41.3 °F 16.0 °F 34% 30.23 in 10.0 mi SSW 3.5 mph - N/A   Overcast
12:52 PM 45.0 °F 40.6 °F 14.0 °F 29% 30.22 in 10.0 mi NE 8.1 mph - N/A   Overcast
1:52 PM 45.0 °F - 14.0 °F 29% 30.21 in 10.0 mi Calm Calm - N/A   Overcast
2:52 PM 46.0 °F 43.9 °F 16.0 °F 30% 30.19 in 10.0 mi East 4.6 mph - N/A   Overcast
3:52 PM 48.0 °F - 19.0 °F 32% 30.19 in 10.0 mi NE 6.9 mph - N/A   Overcast
4:52 PM 46.0 °F 40.2 °F 21.9 °F 39% 30.22 in 10.0 mi North 12.7 mph - N/A   Overcast
5:52 PM 45.0 °F 38.2 °F 25.0 °F 46% 30.22 in 10.0 mi NNE 15.0 mph - N/A   Overcast
6:52 PM 41.0 °F 33.5 °F 27.0 °F 57% 30.24 in 10.0 mi North 13.8 mph - N/A   Overcast
7:52 PM 39.9 °F 33.9 °F 28.9 °F 65% 30.25 in 10.0 mi North 9.2 mph - N/A   Overcast
8:52 PM 39.0 °F 35.7 °F 30.9 °F 73% 30.25 in 10.0 mi NNE 4.6 mph - N/A   Overcast
9:52 PM 39.2 °F - 30.2 °F 70% 30.22 in 10.0 mi Calm Calm - N/A   Overcast
10:52 PM 35.1 °F - 30.0 °F 82% 30.25 in 10.0 mi North - - N/A   Clear
11:52 PM 30.9 °F - 28.0 °F 89% 30.26 in 10.0 mi North - - N/A   Clear